NORTHEAST SUFFOLK  -  Special Weather Statement Special Weather Statement        NORTHERN NASSAU  -  Special Weather Statement Special Weather Statement        NORTHWEST SUFFOLK  -  Special Weather Statement Special Weather Statement        SOUTHEAST SUFFOLK  -  Special Weather Statement Special Weather Statement        SOUTHERN NASSAU  -  Special Weather Statement Special Weather Statement        SOUTHWEST SUFFOLK  -  Special Weather Statement Special Weather Statement      

Active alerts

Northern Nassau
  Details for Northern Nassau Special Weather Statement
Southern Nassau
  Details for Southern Nassau Special Weather Statement
Northwest Suffolk
  Details for Northwest Suffolk Special Weather Statement
Southwest Suffolk
  Details for Southwest Suffolk Special Weather Statement
Northeast Suffolk
  Details for Northeast Suffolk Special Weather Statement
Southeast Suffolk
  Details for Southeast Suffolk Special Weather Statement


WXM80 ListenWXM80 Stop

You find our weather info also at:

UK Metoffice

WeatherCloud

Weather Underground

Northeastern Weather Network

AWEKAS

Citizen Weather Observer Program (CWOP)

HAMweather, WeatherForYou, PWS Weather


Weather Underground History page Text

Daily Summary for March 29, 2016 Units:  English    Metric   Both
« Previous Day
Next Day »
Daily Weekly Monthly Yearly Custom
  High: Low: Average:
Temperature: 54.0 °F 41.6 °F 47.7 °F
Dew Point: 36.2 °F 21.6 °F 29.9 °F
Humidity: 69 % 32 % 51 %
Wind Speed: 15.3 mph 2.4 mph 8.3 mph
Wind Gust: 29.9 mph - -
Wind:- - WNW
Pressure: 30.20 in 29.60 in -
Precipitation: 0.00 in    
Historical Graphs
 
 
Tabular Data for March 29, 2016
Time Temperature Dew Point Pressure Wind Wind Speed Wind Gust Humidity Rainfall Rate (Hourly)
00:03 48.8 °F 35.5 °F 29.60 in West 11.2 mph 26.5 mph 60 % 0.00 in
00:08 48.7 °F 35.8 °F 29.61 in NW 7.7 mph 21.9 mph 61 % 0.00 in
00:13 48.6 °F 36.2 °F 29.60 in WNW 13.1 mph 15.0 mph 62 % 0.00 in
00:23 48.4 °F 35.6 °F 29.60 in WNW 13.2 mph 28.8 mph 61 % 0.00 in
00:33 48.1 °F 35.3 °F 29.61 in NNW 12.5 mph 26.5 mph 61 % 0.00 in
00:39 48.0 °F 35.2 °F 29.62 in WNW 7.2 mph 25.3 mph 61 % 0.00 in
00:44 47.9 °F 35.5 °F 29.62 in NW 12.0 mph 16.0 mph 62 % 0.00 in
00:49 47.9 °F 35.1 °F 29.62 in WNW 8.6 mph 23.0 mph 61 % 0.00 in
00:54 47.8 °F 35.4 °F 29.62 in West 8.2 mph 14.0 mph 62 % 0.00 in
00:59 47.8 °F 34.6 °F 29.63 in NW 15.1 mph 26.5 mph 60 % 0.00 in
01:04 47.9 °F 35.1 °F 29.63 in WNW 7.0 mph 18.4 mph 61 % 0.00 in
01:09 47.9 °F 35.5 °F 29.64 in NW 11.2 mph 23.0 mph 62 % 0.00 in
01:14 47.8 °F 35.0 °F 29.63 in WNW 14.3 mph 24.2 mph 61 % 0.00 in
01:19 47.6 °F 35.2 °F 29.64 in WNW 7.6 mph 17.3 mph 62 % 0.00 in
01:24 47.4 °F 35.4 °F 29.64 in West 9.7 mph 17.0 mph 63 % 0.00 in
01:30 47.3 °F 35.3 °F 29.64 in WNW 8.6 mph 24.2 mph 63 % 0.00 in
01:35 47.1 °F 35.1 °F 29.64 in WNW 10.7 mph 15.0 mph 63 % 0.00 in
01:40 47.1 °F 35.1 °F 29.65 in West 12.5 mph 20.7 mph 63 % 0.00 in
01:45 47.1 °F 35.1 °F 29.65 in West 8.6 mph 15.0 mph 63 % 0.00 in
01:50 47.0 °F 35.4 °F 29.65 in NW 8.4 mph 20.7 mph 64 % 0.00 in
01:55 46.9 °F 35.7 °F 29.65 in West 5.5 mph 15.0 mph 65 % 0.00 in
02:00 46.8 °F 35.6 °F 29.65 in WSW 10.8 mph 23.0 mph 65 % 0.00 in
02:05 46.7 °F 35.6 °F 29.66 in NW 9.1 mph 18.4 mph 65 % 0.00 in
02:10 46.6 °F 35.8 °F 29.66 in NW 10.1 mph 29.9 mph 66 % 0.00 in
02:15 46.5 °F 35.4 °F 29.65 in WSW 7.6 mph 24.2 mph 65 % 0.00 in
02:21 46.4 °F 35.7 °F 29.66 in WNW 9.8 mph 19.6 mph 66 % 0.00 in
02:26 46.3 °F 35.2 °F 29.66 in WSW 8.7 mph 27.6 mph 65 % 0.00 in
02:31 46.3 °F 34.8 °F 29.65 in WNW 11.9 mph 18.4 mph 64 % 0.00 in
02:36 46.3 °F 35.2 °F 29.66 in NW 13.5 mph 23.0 mph 65 % 0.00 in
02:41 46.2 °F 35.1 °F 29.66 in WSW 7.1 mph 13.8 mph 65 % 0.00 in
02:46 46.1 °F 35.4 °F 29.66 in West 11.1 mph 24.2 mph 66 % 0.00 in
02:51 46.1 °F 35.4 °F 29.66 in WSW 8.8 mph 16.1 mph 66 % 0.00 in
02:56 46.0 °F 35.3 °F 29.67 in WSW 9.8 mph 19.6 mph 66 % 0.00 in
03:01 45.9 °F 34.8 °F 29.66 in West 14.3 mph 23.0 mph 65 % 0.00 in
03:06 45.9 °F 35.2 °F 29.66 in West 10.8 mph 18.4 mph 66 % 0.00 in
03:12 45.8 °F 34.7 °F 29.66 in NW 13.7 mph 19.6 mph 65 % 0.00 in
03:17 45.7 °F 35.0 °F 29.67 in NNW 13.0 mph 23.0 mph 66 % 0.00 in
03:22 45.6 °F 34.9 °F 29.67 in WSW 12.7 mph 24.2 mph 66 % 0.00 in
03:27 45.5 °F 34.8 °F 29.67 in NW 10.3 mph 24.2 mph 66 % 0.00 in
03:32 45.4 °F 34.7 °F 29.67 in NW 11.6 mph 21.9 mph 66 % 0.00 in
03:37 45.3 °F 34.6 °F 29.67 in SW 9.9 mph 13.8 mph 66 % 0.00 in
03:42 45.2 °F 34.5 °F 29.67 in West 7.9 mph 15.0 mph 66 % 0.00 in
03:47 45.2 °F 34.5 °F 29.68 in WNW 10.7 mph 17.0 mph 66 % 0.00 in
03:52 45.1 °F 34.4 °F 29.68 in WNW 7.4 mph 15.0 mph 66 % 0.00 in
03:57 45.1 °F 34.4 °F 29.68 in SW 6.8 mph 12.7 mph 66 % 0.00 in
04:03 45.1 °F 34.4 °F 29.68 in West 8.8 mph 14.0 mph 66 % 0.00 in
04:08 45.0 °F 34.3 °F 29.69 in WSW 11.1 mph 19.6 mph 66 % 0.00 in
04:13 45.0 °F 34.3 °F 29.69 in West 9.7 mph 20.7 mph 66 % 0.00 in
04:18 44.9 °F 34.2 °F 29.69 in SW 10.1 mph 18.4 mph 66 % 0.00 in
04:23 44.9 °F 34.2 °F 29.70 in WNW 7.2 mph 15.0 mph 66 % 0.00 in
04:28 44.8 °F 34.1 °F 29.70 in WNW 11.0 mph 19.6 mph 66 % 0.00 in
04:33 44.7 °F 34.0 °F 29.70 in West 9.5 mph 16.1 mph 66 % 0.00 in
04:38 44.7 °F 33.6 °F 29.71 in WNW 11.6 mph 20.7 mph 65 % 0.00 in
04:43 44.7 °F 34.0 °F 29.70 in SW 9.1 mph 19.6 mph 66 % 0.00 in
04:48 44.6 °F 33.9 °F 29.70 in WNW 9.1 mph 17.0 mph 66 % 0.00 in
04:54 44.5 °F 33.8 °F 29.71 in WNW 15.3 mph 17.0 mph 66 % 0.00 in
04:59 44.5 °F 33.8 °F 29.71 in WNW 9.2 mph 17.3 mph 66 % 0.00 in
05:04 44.4 °F 34.1 °F 29.72 in West 9.7 mph 15.0 mph 67 % 0.00 in
05:09 44.4 °F 34.1 °F 29.72 in WNW 7.8 mph 12.7 mph 67 % 0.00 in
05:14 44.3 °F 34.0 °F 29.72 in WSW 8.9 mph 17.3 mph 67 % 0.00 in
05:19 44.3 °F 34.0 °F 29.72 in West 10.5 mph 14.0 mph 67 % 0.00 in
05:24 44.2 °F 33.9 °F 29.73 in SW 9.7 mph 18.4 mph 67 % 0.00 in
05:29 44.2 °F 33.9 °F 29.73 in WNW 8.5 mph 22.0 mph 67 % 0.00 in
05:34 44.2 °F 33.9 °F 29.73 in WNW 11.8 mph 21.9 mph 67 % 0.00 in
05:39 44.2 °F 33.9 °F 29.73 in WNW 9.6 mph 12.7 mph 67 % 0.00 in
05:45 44.2 °F 33.9 °F 29.74 in NW 5.7 mph 18.4 mph 67 % 0.00 in
05:50 44.2 °F 33.9 °F 29.74 in West 9.6 mph 13.8 mph 67 % 0.00 in
05:55 44.1 °F 34.2 °F 29.74 in WSW 11.4 mph 24.2 mph 68 % 0.00 in
06:00 44.0 °F 34.1 °F 29.74 in WNW 8.8 mph 17.3 mph 68 % 0.00 in
06:05 44.0 °F 34.5 °F 29.74 in West 7.1 mph 16.0 mph 69 % 0.00 in
06:15 43.9 °F 34.0 °F 29.75 in West 8.2 mph 16.1 mph 68 % 0.00 in
06:20 43.8 °F 33.6 °F 29.75 in West 8.1 mph 17.3 mph 67 % 0.00 in
06:25 43.8 °F 33.6 °F 29.75 in WSW 9.3 mph 19.6 mph 67 % 0.00 in
06:30 43.7 °F 33.5 °F 29.75 in West 9.5 mph 11.5 mph 67 % 0.00 in
06:36 43.7 °F 33.8 °F 29.76 in WNW 7.9 mph 19.6 mph 68 % 0.00 in
06:41 43.6 °F 33.4 °F 29.76 in WNW 9.8 mph 23.0 mph 67 % 0.00 in
06:46 43.6 °F 33.4 °F 29.76 in SW 7.1 mph 16.1 mph 67 % 0.00 in
06:51 43.6 °F 33.4 °F 29.76 in WNW 6.4 mph 12.7 mph 67 % 0.00 in
06:56 43.5 °F 33.3 °F 29.77 in WSW 12.5 mph 17.0 mph 67 % 0.00 in
07:01 43.5 °F 33.3 °F 29.77 in West 6.2 mph 10.4 mph 67 % 0.00 in
07:06 43.5 °F 33.3 °F 29.77 in WNW 9.1 mph 16.1 mph 67 % 0.00 in
07:11 43.6 °F 33.4 °F 29.78 in WSW 8.0 mph 16.0 mph 67 % 0.00 in
07:16 43.6 °F 33.4 °F 29.78 in WSW 8.5 mph 17.3 mph 67 % 0.00 in
07:22 43.6 °F 33.4 °F 29.79 in WNW 8.3 mph 22.0 mph 67 % 0.00 in
07:27 43.6 °F 33.0 °F 29.79 in WSW 7.9 mph 17.3 mph 66 % 0.00 in
07:32 43.7 °F 33.5 °F 29.78 in WNW 9.7 mph 16.1 mph 67 % 0.00 in
07:37 43.7 °F 33.1 °F 29.78 in West 10.0 mph 20.7 mph 66 % 0.00 in
07:42 43.8 °F 33.2 °F 29.79 in West 8.5 mph 16.1 mph 66 % 0.00 in
07:47 44.0 °F 33.4 °F 29.79 in North 5.1 mph 15.0 mph 66 % 0.00 in
07:52 44.1 °F 33.1 °F 29.79 in NW 6.8 mph 11.5 mph 65 % 0.00 in
07:57 44.2 °F 33.2 °F 29.79 in West 5.9 mph 19.6 mph 65 % 0.00 in
08:02 44.3 °F 32.9 °F 29.81 in NW 12.1 mph 24.2 mph 64 % 0.00 in
08:07 44.4 °F 32.6 °F 29.81 in WSW 11.6 mph 16.0 mph 63 % 0.00 in
08:13 44.5 °F 32.7 °F 29.81 in West 9.0 mph 17.3 mph 63 % 0.00 in
08:18 44.6 °F 32.4 °F 29.82 in WNW 10.0 mph 19.6 mph 62 % 0.00 in
08:23 44.6 °F 32.4 °F 29.82 in NW 9.8 mph 20.0 mph 62 % 0.00 in
08:28 44.7 °F 32.1 °F 29.82 in WSW 14.4 mph 20.7 mph 61 % 0.00 in
08:33 44.7 °F 31.7 °F 29.82 in West 11.7 mph 20.7 mph 60 % 0.00 in
08:38 44.8 °F 31.8 °F 29.82 in WNW 10.7 mph 21.9 mph 60 % 0.00 in
08:43 45.0 °F 31.9 °F 29.82 in West 10.9 mph 16.1 mph 60 % 0.00 in
08:48 45.1 °F 32.0 °F 29.83 in NW 8.7 mph 16.0 mph 60 % 0.00 in
09:04 45.4 °F 31.5 °F 29.84 in SW 10.4 mph 12.7 mph 58 % 0.00 in
09:09 45.6 °F 31.7 °F 29.84 in WNW 7.1 mph 22.0 mph 58 % 0.00 in
09:19 45.9 °F 31.5 °F 29.84 in WSW 10.7 mph 18.4 mph 57 % 0.00 in
09:24 45.9 °F 31.1 °F 29.85 in WSW 10.8 mph 16.1 mph 56 % 0.00 in
09:29 46.0 °F 30.7 °F 29.85 in WNW 12.3 mph 21.9 mph 55 % 0.00 in
09:34 46.2 °F 31.4 °F 29.85 in West 7.2 mph 17.0 mph 56 % 0.00 in
09:39 46.5 °F 31.6 °F 29.85 in WNW 8.6 mph 14.0 mph 56 % 0.00 in
09:44 46.9 °F 32.0 °F 29.85 in WNW 7.8 mph 10.4 mph 56 % 0.00 in
09:49 47.3 °F 31.9 °F 29.85 in WNW 5.5 mph 16.1 mph 55 % 0.00 in
09:55 47.5 °F 31.2 °F 29.85 in West 8.8 mph 11.5 mph 53 % 0.00 in
10:00 47.7 °F 30.9 °F 29.86 in West 8.2 mph 17.3 mph 52 % 0.00 in
10:05 47.7 °F 30.0 °F 29.86 in WSW 11.8 mph 25.3 mph 50 % 0.00 in
10:10 47.6 °F 30.3 °F 29.86 in NW 9.8 mph 20.7 mph 51 % 0.00 in
10:15 47.6 °F 30.3 °F 29.86 in West 11.1 mph 22.0 mph 51 % 0.00 in
10:20 47.7 °F 29.5 °F 29.86 in WNW 11.2 mph 21.9 mph 49 % 0.00 in
10:25 47.9 °F 30.1 °F 29.86 in NW 9.3 mph 17.3 mph 50 % 0.00 in
10:30 48.3 °F 30.5 °F 29.87 in NNW 9.2 mph 18.4 mph 50 % 0.00 in
10:35 48.7 °F 30.9 °F 29.87 in West 8.7 mph 20.0 mph 50 % 0.00 in
10:40 48.8 °F 29.4 °F 29.87 in West 11.1 mph 25.3 mph 47 % 0.00 in
10:46 48.9 °F 30.1 °F 29.88 in NNW 12.3 mph 19.6 mph 48 % 0.00 in
10:51 49.1 °F 29.7 °F 29.88 in NNW 8.8 mph 16.1 mph 47 % 0.00 in
10:56 49.3 °F 30.4 °F 29.88 in NW 9.2 mph 15.0 mph 48 % 0.00 in
11:01 49.4 °F 29.5 °F 29.88 in WSW 13.7 mph 20.7 mph 46 % 0.00 in
11:06 49.6 °F 29.1 °F 29.88 in WNW 10.8 mph 19.6 mph 45 % 0.00 in
11:11 49.8 °F 29.3 °F 29.88 in West 9.3 mph 19.6 mph 45 % 0.00 in
11:16 49.9 °F 29.4 °F 29.88 in WNW 7.2 mph 16.1 mph 45 % 0.00 in
11:21 50.2 °F 28.5 °F 29.88 in WSW 9.4 mph 19.6 mph 43 % 0.00 in
11:26 50.5 °F 29.9 °F 29.89 in NW 11.2 mph 17.3 mph 45 % 0.00 in
11:31 50.6 °F 29.5 °F 29.89 in WNW 7.0 mph 15.0 mph 44 % 0.00 in
11:37 50.8 °F 30.2 °F 29.88 in West 9.7 mph 17.3 mph 45 % 0.00 in
11:42 51.0 °F 29.8 °F 29.88 in West 12.3 mph 21.9 mph 44 % 0.00 in
11:47 50.9 °F 29.7 °F 29.88 in WNW 7.6 mph 16.1 mph 44 % 0.00 in
11:52 51.0 °F 29.8 °F 29.89 in NNW 8.6 mph 16.1 mph 44 % 0.00 in
11:57 51.4 °F 30.2 °F 29.89 in WNW 8.1 mph 12.7 mph 44 % 0.00 in
12:02 51.7 °F 31.0 °F 29.89 in WNW 6.4 mph 12.7 mph 45 % 0.00 in
12:07 51.8 °F 30.0 °F 29.89 in West 10.8 mph 19.6 mph 43 % 0.00 in
12:12 52.0 °F 30.2 °F 29.90 in NW 10.5 mph 13.0 mph 43 % 0.00 in
12:17 52.3 °F 31.6 °F 29.90 in WNW 2.4 mph 10.4 mph 45 % 0.00 in
12:22 52.5 °F 31.2 °F 29.90 in WNW 6.9 mph 10.4 mph 44 % 0.00 in
12:28 52.8 °F 30.9 °F 29.90 in WNW 7.4 mph 12.7 mph 43 % 0.00 in
12:33 52.9 °F 29.2 °F 29.90 in NNW 9.1 mph 19.6 mph 40 % 0.00 in
12:38 52.8 °F 30.3 °F 29.90 in NNW 10.4 mph 26.5 mph 42 % 0.00 in
12:48 52.4 °F 28.8 °F 29.90 in NW 9.9 mph 19.6 mph 40 % 0.00 in
12:53 52.5 °F 30.6 °F 29.90 in West 8.7 mph 16.1 mph 43 % 0.00 in
12:58 52.8 °F 29.7 °F 29.90 in NW 7.0 mph 13.8 mph 41 % 0.00 in
13:03 53.0 °F 30.5 °F 29.90 in WNW 7.5 mph 19.6 mph 42 % 0.00 in
13:08 53.3 °F 30.8 °F 29.90 in NW 6.7 mph 12.7 mph 42 % 0.00 in
13:13 53.3 °F 31.4 °F 29.91 in WNW 9.4 mph 18.4 mph 43 % 0.00 in
13:19 53.2 °F 31.8 °F 29.91 in WNW 6.9 mph 13.0 mph 44 % 0.00 in
13:24 53.0 °F 32.8 °F 29.90 in NNW 8.6 mph 15.0 mph 46 % 0.00 in
13:29 53.0 °F 29.9 °F 29.91 in NW 5.5 mph 10.4 mph 41 % 0.00 in
13:34 53.0 °F 29.9 °F 29.91 in West 10.4 mph 19.6 mph 41 % 0.00 in
13:39 52.9 °F 29.8 °F 29.91 in WNW 7.4 mph 15.0 mph 41 % 0.00 in
13:44 52.8 °F 29.7 °F 29.91 in North 7.2 mph 14.0 mph 41 % 0.00 in
13:49 52.7 °F 27.1 °F 29.91 in NW 7.7 mph 17.3 mph 37 % 0.00 in
13:54 52.7 °F 29.0 °F 29.91 in West 6.7 mph 12.7 mph 40 % 0.00 in
13:59 53.0 °F 28.7 °F 29.91 in NW 5.8 mph 11.5 mph 39 % 0.00 in
14:04 53.3 °F 29.6 °F 29.91 in WNW 7.1 mph 21.9 mph 40 % 0.00 in
14:10 53.7 °F 31.7 °F 29.91 in NW 6.0 mph 11.5 mph 43 % 0.00 in
14:15 54.0 °F 28.9 °F 29.91 in WNW 4.0 mph 11.5 mph 38 % 0.00 in
14:20 54.0 °F 30.2 °F 29.91 in NW 6.6 mph 17.0 mph 40 % 0.00 in
14:25 53.9 °F 28.8 °F 29.90 in WNW 11.1 mph 20.7 mph 38 % 0.00 in
14:30 53.7 °F 27.4 °F 29.90 in NNW 10.6 mph 18.4 mph 36 % 0.00 in
14:35 53.7 °F 28.0 °F 29.91 in WNW 11.0 mph 19.6 mph 37 % 0.00 in
14:40 53.8 °F 26.8 °F 29.91 in NNW 7.2 mph 15.0 mph 35 % 0.00 in
14:45 53.9 °F 26.8 °F 29.91 in WNW 7.0 mph 13.8 mph 35 % 0.00 in
14:50 53.8 °F 29.4 °F 29.91 in WNW 6.1 mph 9.2 mph 39 % 0.00 in
14:55 53.8 °F 30.0 °F 29.91 in WNW 5.1 mph 17.0 mph 40 % 0.00 in
15:01 53.6 °F 29.8 °F 29.91 in NW 12.0 mph 16.1 mph 40 % 0.00 in
15:06 53.4 °F 30.3 °F 29.91 in NW 9.0 mph 12.7 mph 41 % 0.00 in
15:11 53.3 °F 28.9 °F 29.91 in NW 11.2 mph 19.6 mph 39 % 0.00 in
15:16 53.2 °F 27.6 °F 29.91 in West 5.4 mph 8.1 mph 37 % 0.00 in
15:21 53.3 °F 26.3 °F 29.91 in WSW 8.6 mph 13.0 mph 35 % 0.00 in
15:26 53.3 °F 27.0 °F 29.91 in West 9.8 mph 15.0 mph 36 % 0.00 in
15:31 53.4 °F 27.1 °F 29.91 in WNW 7.6 mph 13.8 mph 36 % 0.00 in
15:36 53.4 °F 29.7 °F 29.92 in NW 4.2 mph 9.2 mph 40 % 0.00 in
15:41 53.5 °F 28.5 °F 29.92 in WNW 7.3 mph 14.0 mph 38 % 0.00 in
15:46 53.4 °F 29.0 °F 29.92 in NNW 8.2 mph 17.3 mph 39 % 0.00 in
15:52 53.3 °F 27.7 °F 29.92 in NW 7.1 mph 12.7 mph 37 % 0.00 in
15:57 53.2 °F 26.9 °F 29.92 in WNW 7.3 mph 15.0 mph 36 % 0.00 in
16:02 53.0 °F 26.7 °F 29.92 in WNW 8.1 mph 13.0 mph 36 % 0.00 in
16:07 52.9 °F 24.5 °F 29.93 in NW 7.6 mph 11.5 mph 33 % 0.00 in
16:12 52.8 °F 25.9 °F 29.93 in NW 7.2 mph 13.0 mph 35 % 0.00 in
16:17 52.8 °F 27.9 °F 29.93 in NNW 4.6 mph 8.1 mph 38 % 0.00 in
16:22 53.0 °F 25.3 °F 29.93 in WNW 7.0 mph 18.4 mph 34 % 0.00 in
16:27 53.0 °F 27.4 °F 29.93 in NNW 9.4 mph 14.0 mph 37 % 0.00 in
16:37 52.9 °F 26.0 °F 29.93 in NW 7.0 mph 12.0 mph 35 % 0.00 in
16:43 52.8 °F 26.6 °F 29.94 in WNW 7.5 mph 12.0 mph 36 % 0.00 in
16:48 52.5 °F 27.6 °F 29.94 in West 4.4 mph 11.5 mph 38 % 0.00 in
16:53 52.4 °F 25.5 °F 29.94 in NW 7.8 mph 13.0 mph 35 % 0.00 in
16:58 52.4 °F 23.4 °F 29.94 in NW 9.3 mph 15.0 mph 32 % 0.00 in
17:03 52.4 °F 23.4 °F 29.94 in WNW 9.4 mph 15.0 mph 32 % 0.00 in
17:13 52.2 °F 24.6 °F 29.95 in North 5.8 mph 12.7 mph 34 % 0.00 in
17:18 52.0 °F 26.5 °F 29.95 in NNW 11.5 mph 14.0 mph 37 % 0.00 in
17:23 51.5 °F 25.4 °F 29.95 in North 8.0 mph 11.5 mph 36 % 0.00 in
17:28 51.1 °F 27.0 °F 29.96 in WSW 7.3 mph 10.4 mph 39 % 0.00 in
17:34 50.8 °F 25.4 °F 29.96 in NW 5.5 mph 16.1 mph 37 % 0.00 in
17:39 50.6 °F 25.9 °F 29.96 in WNW 6.1 mph 13.8 mph 38 % 0.00 in
17:44 50.4 °F 25.1 °F 29.97 in NW 5.2 mph 11.5 mph 37 % 0.00 in
17:49 50.3 °F 23.0 °F 29.97 in West 5.8 mph 10.4 mph 34 % 0.00 in
17:54 50.1 °F 23.5 °F 29.97 in SW 6.5 mph 12.7 mph 35 % 0.00 in
17:59 50.0 °F 24.7 °F 29.97 in NW 4.6 mph 19.6 mph 37 % 0.00 in
18:09 49.7 °F 24.5 °F 29.97 in NW 6.3 mph 12.7 mph 37 % 0.00 in
18:14 49.6 °F 22.3 °F 29.98 in WNW 6.4 mph 12.7 mph 34 % 0.00 in
18:19 49.6 °F 23.7 °F 29.98 in NW 7.4 mph 13.8 mph 36 % 0.00 in
18:25 49.5 °F 24.9 °F 29.98 in NNW 4.7 mph 12.7 mph 38 % 0.00 in
18:35 49.1 °F 23.9 °F 29.99 in West 6.2 mph 12.0 mph 37 % 0.00 in
18:40 49.1 °F 24.6 °F 30.00 in WNW 4.1 mph 10.0 mph 38 % 0.00 in
18:45 48.9 °F 26.2 °F 30.00 in NW 6.2 mph 13.8 mph 41 % 0.00 in
18:50 48.7 °F 25.4 °F 30.00 in NW 6.8 mph 13.0 mph 40 % 0.00 in
18:55 48.5 °F 25.2 °F 30.00 in WNW 7.3 mph 10.0 mph 40 % 0.00 in
19:00 48.2 °F 25.6 °F 30.01 in WNW 4.5 mph 5.8 mph 41 % 0.00 in
19:05 48.1 °F 23.7 °F 30.01 in NW 8.1 mph 15.0 mph 38 % 0.00 in
19:10 48.0 °F 22.3 °F 30.01 in West 11.0 mph 13.8 mph 36 % 0.00 in
19:16 48.0 °F 21.6 °F 30.02 in West 7.5 mph 15.0 mph 35 % 0.00 in
19:21 47.9 °F 22.2 °F 30.02 in NW 8.3 mph 18.4 mph 36 % 0.00 in
19:26 47.8 °F 22.1 °F 30.02 in NW 6.4 mph 11.5 mph 36 % 0.00 in
19:31 47.7 °F 22.7 °F 30.03 in WNW 8.6 mph 16.0 mph 37 % 0.00 in
19:36 47.6 °F 22.6 °F 30.03 in WSW 7.1 mph 15.0 mph 37 % 0.00 in
19:41 47.5 °F 23.1 °F 30.03 in NW 6.6 mph 12.7 mph 38 % 0.00 in
19:46 47.4 °F 23.0 °F 30.03 in NW 7.1 mph 16.1 mph 38 % 0.00 in
19:51 47.3 °F 25.3 °F 30.03 in NW 6.5 mph 14.0 mph 42 % 0.00 in
19:56 47.2 °F 24.1 °F 30.04 in West 4.6 mph 8.1 mph 40 % 0.00 in
20:01 47.0 °F 23.3 °F 30.04 in WNW 5.5 mph 15.0 mph 39 % 0.00 in
20:07 46.9 °F 23.2 °F 30.05 in WNW 5.7 mph 11.0 mph 39 % 0.00 in
20:12 46.9 °F 24.4 °F 30.06 in NNW 7.6 mph 17.3 mph 41 % 0.00 in
20:22 46.6 °F 24.1 °F 30.07 in NW 9.2 mph 15.0 mph 41 % 0.00 in
20:27 46.5 °F 24.6 °F 30.07 in NW 9.6 mph 15.0 mph 42 % 0.00 in
20:32 46.4 °F 25.6 °F 30.08 in West 4.9 mph 10.4 mph 44 % 0.00 in
20:37 46.3 °F 25.0 °F 30.09 in NNW 4.4 mph 8.1 mph 43 % 0.00 in
20:42 46.1 °F 25.4 °F 30.09 in West 6.5 mph 11.5 mph 44 % 0.00 in
20:53 45.7 °F 25.5 °F 30.10 in NW 6.0 mph 10.4 mph 45 % 0.00 in
21:03 45.4 °F 25.3 °F 30.11 in NW 2.9 mph 6.9 mph 45 % 0.00 in
21:08 45.3 °F 26.7 °F 30.11 in NW 5.0 mph 8.1 mph 48 % 0.00 in
21:13 45.1 °F 26.6 °F 30.11 in NNW 4.9 mph 10.4 mph 48 % 0.00 in
21:18 45.0 °F 26.0 °F 30.12 in NW 4.2 mph 5.8 mph 47 % 0.00 in
21:23 44.8 °F 26.3 °F 30.13 in NW 3.5 mph 5.0 mph 48 % 0.00 in
21:33 44.6 °F 28.0 °F 30.13 in WNW 4.0 mph 9.0 mph 52 % 0.00 in
21:38 44.4 °F 27.9 °F 30.13 in NNW 2.7 mph 5.0 mph 52 % 0.00 in
21:44 44.3 °F 28.7 °F 30.14 in NNW 3.5 mph 6.0 mph 54 % 0.00 in
21:54 44.0 °F 28.0 °F 30.15 in North 2.7 mph 5.8 mph 53 % 0.00 in
21:59 43.8 °F 27.8 °F 30.15 in NNW 3.6 mph 8.1 mph 53 % 0.00 in
22:04 43.7 °F 26.3 °F 30.15 in NNW 4.0 mph 6.9 mph 50 % 0.00 in
22:09 43.6 °F 26.2 °F 30.15 in North 4.0 mph 9.2 mph 50 % 0.00 in
22:14 43.5 °F 24.1 °F 30.15 in NNW 6.6 mph 6.9 mph 46 % 0.00 in
22:19 43.4 °F 23.4 °F 30.16 in NNE 6.9 mph 12.0 mph 45 % 0.00 in
22:24 43.4 °F 22.4 °F 30.16 in NNW 7.2 mph 11.5 mph 43 % 0.00 in
22:35 43.3 °F 23.4 °F 30.16 in North 4.7 mph 18.4 mph 45 % 0.00 in
22:40 43.2 °F 24.3 °F 30.16 in North 7.6 mph 12.7 mph 47 % 0.00 in
22:45 43.1 °F 23.7 °F 30.16 in North 5.9 mph 10.4 mph 46 % 0.00 in
22:55 42.9 °F 24.0 °F 30.18 in North 5.4 mph 9.2 mph 47 % 0.00 in
23:00 42.7 °F 24.4 °F 30.18 in NNE 3.3 mph 10.0 mph 48 % 0.00 in
23:05 42.6 °F 23.2 °F 30.18 in North 6.3 mph 10.0 mph 46 % 0.00 in
23:15 42.3 °F 23.5 °F 30.19 in North 3.8 mph 6.9 mph 47 % 0.00 in
23:20 42.2 °F 22.9 °F 30.19 in NNW 7.8 mph 9.2 mph 46 % 0.00 in
23:26 42.1 °F 22.3 °F 30.19 in NNE 6.5 mph 11.5 mph 45 % 0.00 in
23:36 41.9 °F 23.6 °F 30.19 in NW 4.3 mph 5.8 mph 48 % 0.00 in
23:41 41.8 °F 22.0 °F 30.19 in NNE 5.9 mph 11.5 mph 45 % 0.00 in
23:46 41.8 °F 22.0 °F 30.19 in NNW 5.3 mph 9.2 mph 45 % 0.00 in
23:51 41.7 °F 22.9 °F 30.20 in North 3.9 mph 6.9 mph 47 % 0.00 in
23:56 41.6 °F 22.8 °F 30.20 in NW 4.0 mph 10.0 mph 47 % 0.00 in
Crab Meadow Weather
Compliments of Weather Underground - 2.75 mb

Script developed by  Jim McMurry - jmcmurry@mwt.net Adapted for the template by  Wim van der Kuil - Leuven-Template.eu

Weather Terms: Rain/Showers - Rain is a nearly steady and uniform fall of precipitation over an area. Showers are intermittent and/or scattered convective rainfall of varying intensity.